This is the latest recevied weather packets stored in our database for station/object K5NWZ. If no packets are shown the sender has not sent any weather packets the latest 10 day(s).
| Time | Temp. | Humidity | Pressure | Rain* | Wind** | Luminosity | Snow |
|---|---|---|---|---|---|---|---|
| 1787600776 | 34.44° C | 25% | 1029.7 hPa | 0 mm | - | 319 W/m² | - |
| 1787600472 | 33.33° C | 25% | 1029.8 hPa | 0 mm | - | 918 W/m² | - |
| 1787600167 | 33.33° C | 26% | 1029.9 hPa | 0 mm | - | 856 W/m² | - |
| 1787599864 | 33.89° C | 25% | 1029.8 hPa | 0 mm | - | 818 W/m² | - |
| 1787599560 | 32.78° C | 26% | 1029.6 hPa | 0 mm | - | 786 W/m² | - |
| 1787599256 | 32.22° C | 26% | 1029.8 hPa | 0 mm | - | 776 W/m² | - |
| 1787598951 | 32.22° C | 27% | 1029.8 hPa | 0 mm | - | 645 W/m² | - |
| 1787598647 | 32.78° C | 26% | 1030.1 hPa | 0 mm | - | 474 W/m² | - |
| 1787598346 | 33.33° C | 27% | 1029.9 hPa | 0 mm | - | 755 W/m² | - |
| 1787598042 | 32.78° C | 26% | 1030.2 hPa | 0 mm | - | 737 W/m² | - |
| 1787597737 | 32.22° C | 28% | 1030.2 hPa | 0 mm | - | 728 W/m² | - |
| 1787597436 | 32.78° C | 27% | 1030.2 hPa | 0 mm | - | 722 W/m² | - |
| 1787597131 | 32.78° C | 27% | 1030.2 hPa | 0 mm | - | 704 W/m² | - |
| 1787596827 | 32.22° C | 28% | 1030.3 hPa | 0 mm | - | 717 W/m² | - |
| 1787596522 | 32.22° C | 28% | 1030.2 hPa | 0 mm | - | 730 W/m² | - |
| 1787596217 | 32.22° C | 28% | 1030.4 hPa | 0 mm | - | 723 W/m² | - |
| 1787595914 | 32.22° C | 28% | 1030.1 hPa | 0 mm | - | 719 W/m² | - |
| 1787595609 | 32.78° C | 28% | 1030.3 hPa | 0 mm | - | 711 W/m² | - |
| 1787595305 | 32.22° C | 27% | 1030.3 hPa | 0 mm | - | 714 W/m² | - |
| 1787595004 | 31.67° C | 28% | 1030.3 hPa | 0 mm | - | 748 W/m² | - |
| 1787594699 | 31.11° C | 29% | 1030.3 hPa | 0 mm | - | 595 W/m² | - |
| 1787594397 | 31.67° C | 28% | 1030.4 hPa | 0 mm | - | 511 W/m² | - |
| 1787594092 | 31.67° C | 28% | 1030.5 hPa | 0 mm | - | 578 W/m² | - |
| 1787593788 | 31.67° C | 28% | 1030.5 hPa | 0 mm | - | 695 W/m² | - |
| 1787593482 | 31.67° C | 29% | 1030.6 hPa | 0 mm | - | 683 W/m² | - |
* Rain latest hour (hover to see other rain measurements)
** Current wind speed in m/s (hover to see current wind gust speed)